Weather in Parnaiba

Brazil     2°54′55″S   41°46′01″W
temp.,
°C
wind,
m/s
gust,
m/s
humid.,
%
clouds,
%
prec.,
mm/h
press.,
hPa
HPBL,
m
16 may, mon
mon1600:00+23ene2698100 0.0 1012159
03:00+23e1398100 0.0 101161
06:00+22e259846 0.0 1012126
09:00+28e367646 0.0 1014642
12:00+30e366014 0.0 10121307
15:00+29ene247799 0.0 1010567
18:00+25ne2791100 0.1 1012179
21:00+24ne279584 0.1 1013174
17 may, tue
tue1700:00+24ene2109495 0.0 1012318
03:00+23e3109368 0.0 1011369
06:00+23e3119698 0.0 1012422
09:00+28e4875100 0.0 1014859
12:00+31e356014 0.0 10121353
15:00+30ene247085 0.1 10101253
18:00+25ne279081 0.2 1011230
21:00+25ene399072 0.2 1012330
18 may, wed
wed1800:00+24ene299322 0.0 1012319
03:00+23ene31093100 0.0 1010325
06:00+23e21094100 0.0 1012360
09:00+26e3883100 0.0 1013442
12:00+31e356366 0.0 10111372
15:00+27ne369359 2.2 1009441
18:00+24ne299625 3.3 1011286
21:00+24ene2897100 4.6 1013226
19 may, thu
thu1900:00+23ene2798100 0.0 1011196
03:00+23se1499100 1.4 1010105
06:00+23e259958 1.2 1011140
09:00+27e258627 1.4 1013427
12:00+29ne3476100 2.2 10111115
15:00+27ne2593100 6.8 1009384
18:00+24ne269699 1.6 1011135
21:00+23ne229695 1.6 101352
20 may, fri
fri2000:00+23e229795 0.0 101361
03:00+23ese2599100 0.4 1011127
06:00+23ese259977 0.7 1013147
09:00+27e258222 0.7 1015585
12:00+29ene347349 0.3 10131193
15:00+29ne237455 1.0 1012875
18:00+24nne129467 0.4 101319
21:00+23nne1198100 2.3 101524